Zurück zum Katalog

COSMOS 2251 DEB

AktivLEO
NORAD 34672·DEBRIS·🇷🇺 Russia

Gestartet Jun 16, 1993 von Plesetsk Cosmodrome

Loading…

Nächste Überflüge (nächste 24 Stunden)

TLE

AktuellSource: Space-Track

Epoche: Sep 14, 2026, 02:46 UTC

1 34672U 93036XS  26257.11589388  .00000352  00000-0  12775-3 0  9993
2 34672  74.0340 159.4894 0024413 171.0178 257.5010 14.36731059691321

Verfolge COSMOS 2251 DEB in Echtzeit mit AllMySat

Download on the App Store